Honolulu, HI

1:39 PM HST on June 20, 2018 (GMT -1000)
Honolulu International

Weather History for PHNL - November, 2017

Change the Weather History Date:

Wednesday, November 15, 2017

  Actual Average Record
Temperature  
Mean Temperature 80 °F 78 °F  
Max Temperature 85 °F 84 °F 90 °F (1995)
Min Temperature 75 °F 72 °F 60 °F (1974)
Degree Days  
Heating Degree Days 0 0  
Month to date heating degree days 0 0  
Since 1 July heating degree days 0 0  
Cooling Degree Days 15 13  
Month to date cooling degree days 242 201  
Year to date cooling degree days 4266 4147  
Growing Degree Days 30 (Base 50)    
Moisture  
Dew Point 63 °F    
Average Humidity 57    
Maximum Humidity 71    
Minimum Humidity 34    
Precipitation  
Precipitation 0.00 in 0.09 in 2.22 in (1996)
Month to date precipitation 0.41 1.27  
Year to date precipitation 19.18 12.71  
Sea Level Pressure  
Sea Level Pressure 30.02 in    
Wind  
Wind Speed 13 mph (NE)    
Max Wind Speed 29 mph    
Max Gust Speed 36 mph    
Visibility 10 miles    
Events Rain    
T = Trace of Precipitation, MM = Missing Value Source: NWS Daily Summary

Daily Weather History Graph

Daily Weather History Graph

Search for Another Location

Airport or City:

Astronomy

Nov. 15, 2017 Rise Set
Actual Time 6:42 AM HST 5:49 PM HST
Civil Twilight 6:19 AM HST 6:13 PM HST
Nautical Twilight 5:52 AM HST 6:40 PM HST
Astronomical Twilight 5:25 AM HST 7:06 PM HST
Moon 4:21 AM HST (11/15) 4:27 PM HST (11/15)
Length of Visible Light 11h 53m
Length of Day
11h 06m
Waning Crescent, 6% of the Moon is Illuminated
Nov 15
Waning Crescent
Nov 18
New
Nov 26
First Quarter
Dec 3
Full
Dec 9
Last Quarter

Hourly Weather History & Observations

Time (HST) Temp. Heat Index Dew Point Humidity Pressure Visibility Wind Dir Wind Speed Gust Speed Precip Events Conditions
12:53 AM 75.9 °F - 63.0 °F 64% 30.03 in 10.0 mi NE 10.4 mph - N/A   Partly Cloudy
1:53 AM 75.9 °F - 64.0 °F 67% 30.01 in 10.0 mi NNE 10.4 mph - N/A   Scattered Clouds
2:53 AM 77.0 °F - 63.0 °F 62% 30.00 in 10.0 mi North 3.5 mph - N/A   Scattered Clouds
3:53 AM 77.0 °F - 63.0 °F 62% 30.00 in 10.0 mi North - - N/A   Scattered Clouds
4:53 AM 75.9 °F - 63.0 °F 64% 30.00 in 10.0 mi ENE 6.9 mph - N/A   Scattered Clouds
5:53 AM 75.9 °F - 62.1 °F 62% 30.01 in 10.0 mi Calm Calm - N/A   Partly Cloudy
6:53 AM 75.9 °F - 63.0 °F 64% 30.02 in 10.0 mi North 5.8 mph - N/A   Partly Cloudy
7:53 AM 78.1 °F - 63.0 °F 60% 30.04 in 10.0 mi NNE 8.1 mph - N/A   Scattered Clouds
8:53 AM 80.1 °F 80.9 °F 60.1 °F 50% 30.04 in 10.0 mi NE 20.7 mph 29.9 mph N/A   Partly Cloudy
9:53 AM 82.0 °F 83.8 °F 64.9 °F 56% 30.05 in 10.0 mi NE 19.6 mph 28.8 mph N/A   Partly Cloudy
10:53 AM 82.9 °F 85.0 °F 66.0 °F 56% 30.03 in 10.0 mi NE 21.9 mph 35.7 mph N/A   Partly Cloudy
11:53 AM 82.9 °F 85.4 °F 66.9 °F 58% 30.02 in 10.0 mi NE 17.3 mph 31.1 mph N/A   Scattered Clouds
12:53 PM 84.0 °F 84.4 °F 61.0 °F 46% 30.00 in 10.0 mi NE 24.2 mph 35.7 mph N/A   Scattered Clouds
1:53 PM 84.9 °F 85.0 °F 61.0 °F 44% 29.98 in 10.0 mi NE 20.7 mph 29.9 mph N/A   Partly Cloudy
2:53 PM 84.0 °F 84.0 °F 60.1 °F 44% 29.97 in 10.0 mi ENE 19.6 mph 29.9 mph N/A   Scattered Clouds
3:53 PM 82.0 °F 82.7 °F 61.0 °F 49% 29.98 in 10.0 mi NE 18.4 mph 27.6 mph N/A   Scattered Clouds
4:53 PM 82.0 °F 82.7 °F 61.0 °F 49% 29.98 in 10.0 mi NE 17.3 mph 27.6 mph N/A   Scattered Clouds
5:53 PM 79.0 °F - 62.1 °F 56% 30.00 in 10.0 mi NE 20.7 mph - N/A   Partly Cloudy
6:53 PM 78.1 °F - 62.1 °F 58% 30.02 in 10.0 mi NE 16.1 mph 26.5 mph N/A   Scattered Clouds
7:53 PM 78.1 °F - 63.0 °F 60% 30.04 in 10.0 mi ENE 13.8 mph 24.2 mph 0.00 in Rain Light Rain
8:53 PM 75.0 °F - 64.9 °F 71% 30.06 in 10.0 mi ENE 11.5 mph - 0.03 in Rain Light Rain
9:53 PM 75.9 °F - 64.9 °F 69% 30.06 in 10.0 mi NE 17.3 mph 23.0 mph 0.00 in Rain Light Rain
10:53 PM 77.0 °F - 63.0 °F 62% 30.05 in 10.0 mi ENE 19.6 mph 26.5 mph 0.00 in Rain Light Rain
11:53 PM 77.0 °F - 63.0 °F 62% 30.04 in 10.0 mi NE 15.0 mph - 0.00 in Rain Light Rain